St. Johnsbury, VT

2:53 PM EDT on July 23, 2017 (GMT -0400)
St. Johnsbury

Weather History for K1V4 - May, 2014

Change the Weather History Date:

Thursday, May 15, 2014

  Actual Average Record
Temperature  
Mean Temperature 64 °F 56 °F  
Max Temperature 75 °F 69 °F 90 °F (1974)
Min Temperature 53 °F 44 °F 22 °F (1913)
Degree Days  
Heating Degree Days 0 9  
Month to date heating degree days 173  
Since 1 July heating degree days 7592  
Cooling Degree Days 0 0  
Month to date cooling degree days 0 0  
Year to date cooling degree days 0 1  
Growing Degree Days 14 (Base 50)    
Moisture  
Dew Point 54 °F    
Average Humidity 66    
Maximum Humidity 77    
Minimum Humidity 54    
Precipitation  
Precipitation 0.00 in 0.11 in 1.44 in (2011)
Month to date precipitation 1.16 1.56  
Year to date precipitation 12.24 11.61  
Sea Level Pressure  
Sea Level Pressure 30.14 in    
Wind  
Wind Speed - (North)    
Max Wind Speed -    
Max Gust Speed -    
T = Trace of Precipitation, MM = Missing Value Source: NWS Daily Summary

Daily Weather History Graph

Daily Weather History Graph

Search for Another Location

Airport or City:

Trip Planner

Search our weather history database for the weather conditions in past years. The results will help you decide how hot, cold, wet, or windy it might be!

Date:

Astronomy

May. 15, 2014 Rise Set
Actual Time 5:20 AM EDT 8:08 PM EDT
Civil Twilight 4:47 AM EDT 8:42 PM EDT
Nautical Twilight 4:04 AM EDT 9:25 PM EDT
Astronomical Twilight 3:14 AM EDT 10:15 PM EDT
Moon 9:13 PM EDT (5/15) 6:05 AM EDT (5/15)
Length of Visible Light 15h 55m
Length of Day
14h 47m
Full, 99% of the Moon is Illuminated
May 15
Full
May 21
Last Quarter
May 28
New
Jun 5
First Quarter
Jun 13
Full

Hourly Weather History & Observations

Time (EDT) Temp. Dew Point Humidity Pressure Visibility Wind Dir Wind Speed Gust Speed Precip Events Conditions
12:54 AM 60.1 °F 46.0 °F 60% 30.18 in - North - - N/A   Unknown
1:54 AM 57.0 °F 46.9 °F 69% 30.19 in - North - - N/A   Unknown
2:54 AM 54.0 °F 46.0 °F 75% 30.19 in - North - - N/A   Unknown
3:54 AM 55.0 °F 46.9 °F 74% 30.19 in - North - - N/A   Unknown
4:54 AM 55.0 °F 46.9 °F 74% 30.18 in - North - - N/A   Unknown
5:54 AM 57.9 °F 50.0 °F 75% 30.18 in - North - - N/A   Unknown
6:54 AM 59.0 °F 52.0 °F 78% 30.19 in - North - - N/A   Unknown
7:54 AM 60.1 °F 52.0 °F 75% 30.19 in - North - - N/A   Unknown
8:54 AM 62.1 °F 54.0 °F 75% 30.18 in - North - - N/A   Unknown
9:54 AM 64.0 °F 55.0 °F 73% 30.18 in - North - - N/A   Unknown
10:54 AM 64.9 °F 55.9 °F 73% 30.17 in - North - - N/A   Unknown
11:54 AM 66.9 °F 57.0 °F 70% 30.17 in - North - - N/A   Unknown
12:54 PM 66.9 °F 57.9 °F 73% 30.16 in - North - - N/A   Unknown
1:54 PM 68.0 °F 57.9 °F 70% 30.16 in - North - - N/A   Unknown
3:54 PM 73.0 °F 57.0 °F 57% 30.10 in - North - - N/A   Unknown
4:54 PM 73.0 °F 57.9 °F 59% 30.09 in - North - - N/A   Unknown
5:54 PM 73.9 °F 57.9 °F 57% 30.07 in - North - - N/A   Unknown
6:54 PM 75.0 °F 57.9 °F 55% 30.06 in - North - - N/A   Unknown
7:54 PM 73.0 °F 57.9 °F 59% 30.08 in - North - - N/A   Unknown
8:54 PM 73.0 °F 59.0 °F 61% 30.10 in - North - - N/A   Unknown
9:54 PM 72.0 °F 59.0 °F 64% 30.10 in - North - - N/A   Unknown
10:54 PM 70.0 °F 57.9 °F 65% 30.09 in - North - - N/A   Unknown
11:54 PM 70.0 °F 57.9 °F 65% 30.07 in - North - - N/A   Unknown